Location: *
(48.8489°N, 2.3218°E)
Time: 18:35:10
(UTC+00:00)

ALOS 2 - Pass Details

Date: 23 August 2019
Orbit: 630 x 632 km, 97.9° (Epoch: 22 September)

Event Time Altitude Azimuth Distance (km) Brightness Sun altitude
Exits shadow 22:08:06 23° 57° (ENE) 1,369 4.3 -25.5°
Drops below altitude 10° 22:11:14 10° 11° (NNE) 2,025 5.8 -25.8°
Sets 22:13:48 0° 357° (N) 2,938 7.1 -26.0°
